TimeMST,TemperatureF,Dew PointF,Humidity,Sea Level PressureIn,VisibilityMPH,Wind Direction,Wind SpeedMPH,Gust SpeedMPH,PrecipitationIn,Events,Conditions,WindDirDegrees,DateUTC
12:15 AM,42.4,10.6,27,30.17,10.0,South,4.6,-,N/A,,Clear,190,2012-11-25 07:15:00
12:35 AM,41.9,10.6,28,30.16,10.0,SW,3.5,-,N/A,,Clear,230,2012-11-25 07:35:00
12:55 AM,42.8,10.4,27,30.16,10.0,Calm,Calm,-,N/A,,Clear,0,2012-11-25 07:55:00
1:15 AM,42.1,10.8,28,30.16,10.0,Calm,Calm,-,N/A,,Clear,0,2012-11-25 08:15:00
1:35 AM,42.1,10.8,28,30.15,10.0,Calm,Calm,-,N/A,,Clear,0,2012-11-25 08:35:00
1:55 AM,41.4,11.1,29,30.15,10.0,Calm,Calm,-,N/A,,Clear,0,2012-11-25 08:55:00
2:15 AM,41.0,10.4,29,30.15,10.0,Calm,Calm,-,N/A,,Clear,0,2012-11-25 09:15:00
2:35 AM,40.3,10.6,30,30.15,10.0,Calm,Calm,-,N/A,,Clear,0,2012-11-25 09:35:00
2:55 AM,39.7,10.4,30,30.15,10.0,Calm,Calm,-,N/A,,Clear,0,2012-11-25 09:55:00
3:15 AM,40.5,10.4,29,30.15,10.0,Calm,Calm,-,N/A,,Clear,0,2012-11-25 10:15:00
3:35 AM,39.6,9.7,29,30.14,10.0,NW,3.5,-,N/A,,Clear,320,2012-11-25 10:35:00
3:55 AM,40.1,8.1,27,30.14,10.0,Calm,Calm,-,N/A,,Clear,0,2012-11-25 10:55:00
4:15 AM,39.4,7.5,27,30.14,10.0,North,4.6,-,N/A,,Clear,360,2012-11-25 11:15:00
4:35 AM,39.2,8.6,28,30.14,10.0,Calm,Calm,-,N/A,,Clear,0,2012-11-25 11:35:00
4:55 AM,39.7,8.6,28,30.14,10.0,NNW,3.5,-,N/A,,Clear,330,2012-11-25 11:55:00
5:15 AM,39.4,8.4,28,30.14,10.0,Calm,Calm,-,N/A,,Clear,0,2012-11-25 12:15:00
5:35 AM,38.8,7.3,27,30.14,10.0,Calm,Calm,-,N/A,,Clear,0,2012-11-25 12:35:00
5:55 AM,38.5,7.3,28,30.14,10.0,Calm,Calm,-,N/A,,Clear,0,2012-11-25 12:55:00
6:15 AM,37.6,7.9,29,30.14,10.0,Calm,Calm,-,N/A,,Clear,0,2012-11-25 13:15:00
6:35 AM,38.1,7.7,28,30.14,10.0,Calm,Calm,-,N/A,,Clear,0,2012-11-25 13:35:00
6:55 AM,37.2,7.0,28,30.15,10.0,Calm,Calm,-,N/A,,Clear,0,2012-11-25 13:55:00
7:15 AM,36.3,9.0,32,30.15,10.0,Calm,Calm,-,N/A,,Clear,0,2012-11-25 14:15:00
7:35 AM,37.2,10.2,33,30.15,10.0,Calm,Calm,-,N/A,,Clear,0,2012-11-25 14:35:00
7:55 AM,38.1,10.9,33,30.15,10.0,Calm,Calm,-,N/A,,Clear,0,2012-11-25 14:55:00
8:15 AM,37.4,10.6,33,30.15,10.0,Calm,Calm,-,N/A,,Clear,0,2012-11-25 15:15:00
8:35 AM,37.0,10.2,33,30.15,10.0,Calm,Calm,-,N/A,,Clear,0,2012-11-25 15:35:00
8:55 AM,39.7,10.8,30,30.15,10.0,Calm,Calm,-,N/A,,Clear,0,2012-11-25 15:55:00
9:15 AM,41.2,11.3,30,30.15,10.0,SE,3.5,-,N/A,,Clear,130,2012-11-25 16:15:00
9:35 AM,42.8,12.2,29,30.15,10.0,SSE,3.5,-,N/A,,Clear,160,2012-11-25 16:35:00
9:55 AM,44.4,13.1,28,30.15,10.0,ESE,3.5,-,N/A,,Clear,120,2012-11-25 16:55:00
10:15 AM,45.7,13.1,27,30.15,10.0,SE,3.5,-,N/A,,Clear,130,2012-11-25 17:15:00
10:35 AM,45.5,12.7,27,30.14,10.0,ENE,4.6,-,N/A,,Clear,70,2012-11-25 17:35:00
10:55 AM,46.4,11.8,25,30.13,10.0,East,3.5,-,N/A,,Clear,90,2012-11-25 17:55:00
11:15 AM,47.8,10.6,22,30.12,10.0,East,3.5,-,N/A,,Clear,90,2012-11-25 18:15:00
11:35 AM,48.6,10.6,22,30.11,10.0,Calm,Calm,-,N/A,,Clear,0,2012-11-25 18:35:00
11:55 AM,50.0,10.2,20,30.10,10.0,ESE,3.5,-,N/A,,Clear,120,2012-11-25 18:55:00
12:15 PM,50.4,10.2,20,30.09,10.0,East,3.5,-,N/A,,Clear,90,2012-11-25 19:15:00
12:35 PM,52.0,9.7,18,30.07,10.0,SSE,9.2,-,N/A,,Clear,160,2012-11-25 19:35:00
12:55 PM,52.0,9.7,18,30.07,10.0,SSE,6.9,-,N/A,,Clear,160,2012-11-25 19:55:00
1:15 PM,52.7,9.5,18,30.06,10.0,SE,4.6,-,N/A,,Clear,140,2012-11-25 20:15:00
1:35 PM,53.2,9.9,18,30.05,10.0,SE,6.9,-,N/A,,Clear,140,2012-11-25 20:35:00
1:55 PM,53.8,9.9,17,30.04,10.0,East,4.6,-,N/A,,Clear,100,2012-11-25 20:55:00
2:15 PM,54.1,10.0,17,30.03,10.0,ESE,4.6,-,N/A,,Clear,110,2012-11-25 21:15:00
2:35 PM,54.5,10.2,17,30.03,10.0,East,8.1,-,N/A,,Clear,100,2012-11-25 21:35:00
2:55 PM,54.5,10.0,17,30.03,10.0,ESE,4.6,-,N/A,,Clear,120,2012-11-25 21:55:00
3:15 PM,54.5,9.9,17,30.02,10.0,Calm,Calm,-,N/A,,Clear,0,2012-11-25 22:15:00
3:35 PM,53.8,10.2,18,30.03,10.0,East,4.6,-,N/A,,Clear,80,2012-11-25 22:35:00
3:55 PM,53.4,10.2,18,30.02,10.0,East,5.8,-,N/A,,Clear,80,2012-11-25 22:55:00
4:15 PM,53.8,10.0,17,30.03,10.0,East,3.5,-,N/A,,Clear,90,2012-11-25 23:15:00
4:35 PM,52.0,9.7,18,30.03,10.0,Calm,Calm,-,N/A,,Clear,0,2012-11-25 23:35:00
4:55 PM,52.7,9.7,18,30.03,10.0,Calm,Calm,-,N/A,,Clear,0,2012-11-25 23:55:00
5:15 PM,52.7,9.5,18,30.03,10.0,Calm,Calm,-,N/A,,Clear,0,2012-11-26 00:15:00
5:35 PM,52.5,9.7,18,30.04,10.0,Calm,Calm,-,N/A,,Clear,0,2012-11-26 00:35:00
5:55 PM,52.3,9.3,18,30.04,10.0,Calm,Calm,-,N/A,,Clear,0,2012-11-26 00:55:00
6:15 PM,51.8,8.2,17,30.05,10.0,WSW,3.5,-,N/A,,Clear,250,2012-11-26 01:15:00
6:35 PM,50.9,8.2,18,30.05,10.0,NW,8.1,-,N/A,,Clear,320,2012-11-26 01:35:00
6:55 PM,51.4,8.4,18,30.05,10.0,WSW,6.9,-,N/A,,Clear,240,2012-11-26 01:55:00
7:15 PM,51.1,8.6,18,30.05,10.0,West,3.5,-,N/A,,Clear,270,2012-11-26 02:15:00
7:35 PM,49.8,8.6,19,30.05,10.0,Calm,Calm,-,N/A,,Clear,0,2012-11-26 02:35:00
7:55 PM,52.0,7.7,17,30.05,10.0,Calm,Calm,-,N/A,,Clear,0,2012-11-26 02:55:00
8:15 PM,51.3,7.3,17,30.05,10.0,West,5.8,-,N/A,,Clear,270,2012-11-26 03:15:00
8:35 PM,50.0,7.7,18,30.05,10.0,Calm,Calm,-,N/A,,Clear,0,2012-11-26 03:35:00
8:55 PM,48.9,8.2,19,30.06,10.0,WSW,4.6,-,N/A,,Clear,250,2012-11-26 03:55:00
9:15 PM,49.5,7.3,18,30.06,10.0,West,5.8,-,N/A,,Clear,260,2012-11-26 04:15:00
9:35 PM,49.8,7.7,18,30.06,10.0,West,8.1,-,N/A,,Clear,260,2012-11-26 04:35:00
9:55 PM,49.8,8.1,18,30.07,10.0,West,6.9,-,N/A,,Clear,260,2012-11-26 04:55:00
10:15 PM,48.4,8.6,20,30.07,10.0,West,4.6,-,N/A,,Clear,270,2012-11-26 05:15:00
10:35 PM,48.7,8.2,19,30.07,10.0,Calm,Calm,-,N/A,,Clear,0,2012-11-26 05:35:00
10:55 PM,50.7,8.4,18,30.07,10.0,Calm,Calm,-,N/A,,Clear,0,2012-11-26 05:55:00
11:15 PM,50.0,9.3,19,30.07,10.0,WSW,3.5,-,N/A,,Clear,240,2012-11-26 06:15:00
11:35 PM,49.3,10.6,21,30.07,10.0,WSW,3.5,-,N/A,,Clear,250,2012-11-26 06:35:00
11:55 PM,50.5,10.9,20,30.07,10.0,West,5.8,-,N/A,,Clear,270,2012-11-26 06:55:00